Location: ??????
(41.3164°N, 22.6615°E)
Time: 04:16:02
(UTC+00:00)

CUBEBUG 2 - Pass Details

Date: 06 July 2022
Orbit: 584 x 692 km, 97.7° (Epoch: 17 August)

Event Time Altitude Azimuth Distance (km) Brightness Sun altitude
Rises 00:56:40 0° 21° (NNE) 2,856 ? -18.0°
Reaches altitude 10° 00:58:57 10° 29° (NNE) 1,962 ? -17.7°
Maximum altitude 01:02:55 38° 98° (E) 950 ? -17.3°
Enters shadow 01:06:08 15° 162° (SSE) 1,692 ? -16.9°
